Wind_Speed
13 13 13 13 14 13 14 15 14 14 13 12 11 10 8 7 6 5 3 3 3 3 3 2 4 4 3 4 5 5 5 5 5 4 4 5 4 3 4 4 4 4 4 3 3 3 2 2 2
12 12 14 14 13 14 15 15 14 14 14 14 12 11 9 8 7 6 4 4 3 3 3 2 3 3 3 3 4 4 4 4 4 4 4 4 4 3 3 3 3 4 4 3 3 3 2 2 2
12 12 13 13 14 15 15 15 15 16 15 14 12 11 9 8 7 7 5 5 4 4 3 4 4 4 4 4 5 5 5 4 4 3 3 4 4 3 3 3 3 4 4 3 3 2 2 2 2
13 13 12 14 16 16 16 15 15 15 14 14 13 11 10 9 9 8 7 6 5 4 4 4 4 4 4 4 5 5 5 5 4 4 4 4 4 4 3 3 4 4 4 3 4 3 2 2 2
13 13 13 15 17 17 16 15 16 15 14 14 13 11 10 10 10 9 8 7 6 6 5 4 5 5 5 5 5 5 5 5 4 4 4 4 4 4 4 3 4 4 4 3 3 3 2 2 3
12 12 13 15 17 17 16 15 15 15 13 14 14 13 11 11 10 9 8 7 7 6 5 4 5 5 6 6 5 5 5 4 4 4 4 4 4 3 3 3 4 4 4 4 3 3 3 3 3
13 13 14 15 15 16 15 15 15 15 14 14 14 13 12 11 10 10 9 8 7 7 6 5 5 6 6 6 5 5 4 4 4 4 4 4 4 3 2 4 4 4 4 4 4 4 3 3 3
14 13 14 15 15 15 15 15 15 14 14 14 15 13 12 12 11 10 10 9 8 8 8 7 7 7 7 6 6 5 5 4 4 4 4 4 4 4 3 4 4 4 4 4 4 4 4 4 3
13 13 14 15 15 14 15 15 15 16 15 15 14 13 13 13 13 12 11 10 8 8 8 8 8 7 7 7 6 6 5 5 5 4 4 3 4 4 4 4 4 4 3 4 4 3 4 4 4
15 14 15 15 14 15 15 15 16 16 16 15 15 15 14 14 14 13 12 11 9 8 8 8 8 7 7 7 7 6 5 5 5 4 4 4 4 5 5 5 5 5 4 3 4 4 4 4 4
13 13 14 15 15 16 15 15 16 16 16 15 15 15 15 14 14 13 12 11 10 10 9 9 8 7 7 7 7 7 6 6 5 5 4 4 4 5 5 5 5 5 4 4 4 4 4 4 4
13 13 13 15 16 16 16 15 15 16 15 15 15 14 15 15 14 13 12 12 11 11 10 9 9 8 8 7 6 6 6 6 5 5 5 5 5 5 5 5 5 5 5 5 5 5 4 4 4
12 12 12 13 15 15 16 15 15 15 15 15 15 14 14 14 13 13 12 11 12 12 11 11 10 10 8 7 7 6 6 6 5 5 6 5 6 5 5 5 6 5 5 5 5 5 5 5 5
10 12 12 13 14 14 14 15 15 15 16 16 15 15 14 13 12 12 12 12 12 12 12 11 10 10 10 9 8 7 6 6 6 6 6 6 6 5 5 5 5 5 5 6 6 5 5 5 4
9 10 10 12 13 13 13 13 14 15 15 15 15 15 14 13 13 12 12 12 12 11 11 11 11 11 11 10 10 8 7 7 7 7 7 6 6 5 5 5 5 4 4 5 5 5 5 5 4
8 8 9 10 11 12 12 13 13 15 15 15 15 15 14 14 13 12 12 12 12 11 11 11 11 11 11 10 10 9 8 7 8 8 7 6 6 5 4 4 4 4 3 4 4 5 4 5 5
7 7 7 8 9 10 11 12 13 15 15 15 15 15 14 13 13 12 11 11 11 11 11 11 11 11 11 10 9 9 9 8 8 8 7 7 6 5 5 4 4 4 4 4 4 4 4 4 5
5 6 5 6 6 7 9 10 12 13 13 13 13 13 13 12 12 11 11 10 10 10 10 10 10 10 10 10 9 9 9 8 8 8 7 7 6 5 5 5 5 4 4 4 4 4 4 4 5
4 4 4 3 4 5 7 9 10 10 12 12 12 12 12 12 12 11 10 10 9 9 8 9 9 9 9 9 9 8 8 8 7 7 6 6 5 5 5 5 5 5 5 5 5 5 5 5 6
3 3 3 1 3 4 5 7 9 10 10 11 11 12 11 11 11 11 10 9 8 8 7 7 8 7 7 8 8 8 8 8 7 6 6 6 5 5 5 5 5 5 4 5 5 5 5 6 7
5 4 3 1 1 2 3 6 8 9 10 10 11 11 10 10 10 10 9 8 7 7 7 7 7 7 7 7 8 8 8 7 6 7 7 6 6 5 4 4 4 4 5 5 5 4 6 6 6
6 5 4 3 2 2 1 3 6 6 9 10 11 11 10 10 9 9 8 7 7 6 6 6 6 6 6 6 7 6 6 6 6 6 6 5 5 5 4 4 4 4 4 4 4 4 5 6 6
6 7 7 5 3 4 3 2 4 5 7 9 10 10 10 10 8 8 8 6 6 5 5 5 6 6 5 5 5 4 4 4 5 5 5 5 5 4 4 4 4 4 4 4 4 4 5 5 6
7 8 8 6 4 3 2 3 3 4 5 7 8 9 9 9 8 8 8 7 6 5 4 5 5 5 5 4 4 4 3 3 3 4 4 4 4 4 4 4 3 4 5 4 4 4 5 6 6
9 9 9 8 5 4 4 4 3 3 4 5 7 8 8 8 8 8 8 8 7 6 5 4 4 4 3 3 3 3 3 3 2 3 3 3 4 4 4 4 4 4 5 5 4 4 5 6 7
10 9 9 8 7 5 4 5 5 4 3 4 6 7 7 7 7 8 8 7 7 7 5 4 3 2 2 2 2 2 3 3 2 3 3 3 4 4 4 4 5 5 5 5 5 5 6 6 7
11 11 10 10 9 8 7 6 5 6 5 5 7 6 6 7 7 8 7 7 7 7 6 5 5 5 4 3 2 2 3 3 3 4 4 5 5 5 5 5 6 6 6 7 7 7 7 8 9
13 12 12 12 13 12 11 9 8 7 8 7 7 7 6 7 7 7 8 8 7 7 6 6 6 5 6 5 3 4 4 5 5 5 6 6 6 7 7 7 7 8 8 8 8 9 9 9 10
16 15 16 15 15 15 14 12 11 10 9 8 8 9 9 9 8 8 8 9 9 8 7 7 7 7 6 6 6 6 6 7 7 7 7 8 8 9 9 9 9 9 10 10 10 11 11 11 11
19 18 17 17 17 17 16 14 12 12 11 10 10 10 10 10 9 10 10 10 10 9 9 9 8 8 7 7 7 7 7 8 8 8 9 9 10 10 10 11 11 11 11 11 12 12 13 13 13
Wind_Direction
81 76 71 66 61 56 53 51 46 45 40 37 35 36 47 52 49 56 60 73 83 103 101 96 113 121 124 135 135 133 130 121 123 128 128 122 124 131 134 135 130 124 116 114 105 98 87 69 53
79 71 67 64 57 53 51 49 45 44 41 39 35 39 52 55 56 59 63 79 84 94 103 111 126 124 120 127 134 138 133 125 122 118 127 127 131 137 142 143 142 131 121 113 101 92 75 64 50
76 71 62 55 52 50 49 45 42 40 38 37 36 41 53 49 55 58 62 76 86 86 98 113 127 127 124 121 127 132 132 124 122 119 126 131 132 135 137 135 137 125 118 107 95 85 58 44 34
76 71 61 52 51 49 49 43 40 37 34 35 37 41 49 49 56 60 64 68 87 95 99 103 115 124 128 126 130 135 131 124 119 113 119 125 121 124 132 121 114 109 109 100 92 82 62 42 31
78 70 64 51 51 49 46 43 40 37 33 35 37 42 47 52 56 59 66 71 79 89 94 99 113 123 125 124 130 134 132 129 122 118 115 113 112 119 125 114 115 109 101 94 90 81 70 48 42
77 69 62 54 51 47 43 41 40 38 34 34 38 44 49 55 57 56 61 71 74 77 84 95 103 115 118 117 123 133 133 129 120 114 110 122 118 123 127 115 120 112 101 94 82 76 54 48 45
73 68 59 51 49 46 43 42 42 38 36 40 44 44 46 52 57 57 62 70 79 81 86 96 103 107 109 114 124 129 130 129 128 119 108 108 101 101 112 120 117 118 107 90 81 70 60 55 48
73 68 56 49 45 44 42 44 44 42 40 43 46 46 48 54 56 58 63 70 81 85 89 97 100 102 104 103 113 121 124 125 127 120 117 106 94 89 94 117 112 106 93 79 75 70 61 51 46
73 66 56 51 47 43 46 45 45 44 42 41 46 49 51 54 58 59 66 72 80 86 90 95 94 91 94 96 101 104 111 119 115 110 113 112 101 92 103 95 99 89 86 79 72 62 55 53 56
70 65 55 50 49 50 49 45 44 45 45 43 46 51 55 57 59 61 66 68 74 80 86 86 85 87 94 95 93 95 103 108 110 110 105 94 93 93 96 88 86 78 79 76 63 59 61 62 60
72 60 51 48 56 56 51 46 45 45 45 43 47 51 55 56 59 63 67 67 74 81 84 83 82 83 89 92 93 91 95 98 99 97 104 100 100 100 96 88 84 80 74 69 68 68 65 56 52
74 61 48 49 54 56 49 45 44 45 46 45 47 52 54 55 59 63 67 70 75 80 80 80 78 82 85 88 94 97 98 98 98 95 100 103 106 104 95 87 85 76 63 60 62 68 68 55 48
83 69 55 52 53 52 48 46 45 45 47 49 49 51 54 57 59 62 64 67 72 77 77 76 75 77 81 82 89 97 103 101 97 92 92 101 105 106 98 88 78 73 65 59 61 64 61 50 45
91 80 68 62 60 53 49 50 50 49 48 48 49 50 52 58 62 64 67 69 70 73 74 74 75 73 73 79 87 90 99 98 93 90 92 100 105 102 95 85 77 68 65 63 61 60 48 49 49
95 82 74 64 57 52 50 50 50 49 49 48 48 49 51 55 59 63 66 70 72 72 72 72 73 72 72 77 83 85 86 87 91 91 91 95 100 97 90 77 73 70 66 65 64 57 47 46 45
105 92 78 63 51 49 46 47 51 49 48 47 48 49 52 57 59 62 64 69 71 74 73 73 74 74 73 77 79 80 81 84 91 92 92 91 94 94 87 72 67 67 70 71 65 55 47 40 36
107 97 89 71 56 49 46 47 48 50 48 47 48 49 50 53 56 60 65 68 71 74 74 74 74 73 73 77 79 77 82 87 89 88 88 90 91 85 75 69 69 70 74 71 62 51 42 33 26
119 111 96 72 62 47 42 49 50 51 45 43 46 48 46 48 52 56 61 66 71 74 74 70 69 71 72 74 77 78 81 84 87 84 85 82 81 75 70 69 70 75 73 63 55 43 34 28 24
137 122 109 70 54 50 42 41 45 47 43 42 44 47 48 47 50 53 57 62 66 68 68 67 66 69 72 71 71 76 77 77 77 76 77 74 72 68 65 70 69 71 62 54 46 48 43 34 27
163 145 141 91 64 46 32 30 37 36 36 44 45 43 46 45 47 50 53 58 62 63 62 62 63 64 69 71 68 70 70 71 72 67 67 62 56 58 58 55 62 58 52 46 44 44 36 30 28
183 162 156 151 68 356 17 21 23 27 37 46 44 44 44 44 44 46 47 52 57 58 58 58 59 63 69 71 71 70 69 69 67 63 60 59 52 52 52 51 47 42 40 34 34 31 22 20 22
182 179 176 174 198 191 246 343 6 25 39 39 36 36 35 36 39 41 42 43 46 50 53 56 55 59 70 76 72 67 62 57 52 54 57 54 51 48 46 43 37 28 21 17 17 12 13 14 13
196 196 197 196 182 188 216 308 357 11 33 32 32 32 29 28 28 32 29 33 37 42 50 55 55 57 68 71 67 61 56 49 45 49 49 45 43 42 40 38 35 20 9 1 357 359 10 17 14
205 200 206 212 201 215 237 276 337 351 17 22 26 25 27 27 25 26 24 25 23 26 45 56 58 58 57 53 55 48 41 35 36 38 36 27 25 25 25 24 13 7 3 357 357 2 359 357 357
212 208 214 212 213 209 231 257 288 316 339 2 15 15 18 21 20 20 16 16 14 16 22 35 46 48 48 43 43 33 20 16 17 11 10 5 355 353 355 349 347 342 339 338 330 334 336 335 337
223 224 224 221 226 229 245 249 259 284 313 344 350 358 6 12 14 13 7 0 1 3 0 359 356 12 17 26 7 353 348 346 339 331 330 336 334 331 330 325 326 322 318 321 314 312 315 318 323
221 227 233 234 238 242 246 254 258 272 286 320 335 341 350 358 2 359 354 350 352 350 346 344 348 343 340 328 318 307 309 312 309 308 310 314 316 314 315 314 310 307 307 310 312 309 308 308 313
220 226 233 235 245 247 248 257 265 266 278 297 315 321 334 335 341 345 342 338 340 339 333 331 332 326 330 316 307 301 298 294 292 293 297 299 302 303 301 303 305 301 301 302 303 302 304 303 305
221 227 234 241 245 250 255 265 269 276 278 289 302 314 317 317 320 327 330 327 325 324 322 318 317 320 321 319 312 306 298 293 291 291 293 292 292 295 297 296 297 299 299 300 299 299 298 300 304
225 230 233 239 243 247 256 265 273 274 279 291 303 304 303 307 309 315 318 316 313 309 311 311 308 310 310 309 307 306 305 302 296 297 295 296 295 294 294 295 294 294 295 296 296 296 297 299 302
Height
5904 5903 5903 5903 5902 5901 5900 5899 5899 5898 5897 5896 5894 5893 5892 5892 5892 5893 5890 5889 5890 5890 5890 5891 5891 5891 5892 5892 5893 5893 5894 5894 5895 5895 5895 5895 5896 5896 5896 5896 5896 5896 5896 5895 5895 5895 5894 5894 5893
5906 5905 5905 5905 5903 5902 5901 5901 5900 5900 5898 5896 5895 5893 5892 5892 5891 5890 5889 5889 5890 5890 5890 5891 5891 5892 5892 5893 5893 5894 5895 5895 5896 5896 5896 5896 5896 5897 5897 5896 5896 5896 5896 5896 5896 5895 5895 5894 5894
5908 5907 5907 5906 5904 5904 5903 5902 5901 5900 5899 5897 5896 5894 5893 5892 5891 5890 5889 5889 5890 5890 5890 5891 5892 5892 5893 5894 5894 5895 5895 5896 5896 5897 5897 5897 5897 5897 5897 5897 5897 5897 5896 5896 5896 5896 5895 5895 5894
5910 5910 5909 5908 5905 5905 5905 5903 5903 5902 5901 5899 5897 5895 5894 5893 5892 5891 5890 5890 5890 5890 5890 5891 5892 5893 5893 5894 5895 5895 5896 5897 5897 5897 5897 5897 5898 5897 5897 5897 5897 5897 5897 5897 5897 5896 5896 5895 5894
5912 5912 5910 5908 5907 5907 5906 5905 5905 5904 5902 5900 5898 5897 5895 5894 5892 5891 5891 5890 5890 5891 5891 5892 5892 5893 5894 5895 5895 5896 5897 5897 5898 5898 5898 5898 5898 5898 5898 5898 5898 5898 5898 5898 5897 5897 5896 5896 5895
5913 5913 5912 5910 5909 5909 5908 5908 5907 5906 5903 5901 5899 5898 5896 5895 5893 5892 5892 5891 5891 5892 5892 5892 5893 5894 5894 5895 5896 5897 5897 5898 5898 5899 5899 5899 5899 5899 5899 5899 5899 5899 5898 5898 5898 5897 5897 5896 5896
5916 5915 5913 5912 5911 5911 5910 5909 5908 5907 5905 5903 5901 5900 5898 5896 5895 5894 5893 5892 5892 5892 5892 5893 5894 5895 5895 5896 5896 5897 5898 5898 5899 5899 5899 5900 5900 5899 5899 5899 5899 5899 5899 5899 5898 5897 5897 5897 5896
5916 5917 5914 5914 5913 5913 5912 5911 5909 5908 5906 5904 5903 5901 5900 5898 5896 5895 5894 5893 5893 5893 5893 5894 5895 5896 5896 5897 5897 5897 5898 5899 5899 5900 5900 5900 5900 5900 5900 5900 5900 5900 5900 5899 5899 5898 5898 5897 5896
5917 5918 5917 5916 5915 5915 5913 5913 5911 5909 5908 5906 5904 5903 5901 5899 5897 5896 5895 5895 5895 5895 5895 5896 5896 5897 5897 5897 5897 5898 5898 5899 5900 5900 5900 5901 5901 5901 5901 5901 5900 5900 5900 5900 5899 5898 5898 5897 5897
5919 5919 5919 5918 5917 5916 5915 5915 5913 5911 5910 5908 5906 5904 5902 5901 5899 5898 5897 5896 5896 5896 5897 5897 5898 5898 5898 5898 5898 5899 5899 5900 5900 5901 5901 5901 5901 5901 5901 5901 5901 5901 5900 5900 5900 5899 5899 5898 5897
5921 5921 5921 5920 5919 5918 5917 5916 5915 5913 5912 5910 5908 5906 5904 5903 5902 5901 5899 5898 5898 5898 5898 5899 5899 5899 5899 5899 5899 5900 5900 5900 5901 5901 5901 5902 5902 5902 5902 5902 5902 5901 5901 5901 5900 5900 5899 5898 5897
5923 5923 5922 5922 5921 5920 5919 5918 5917 5915 5914 5912 5910 5908 5907 5905 5904 5903 5902 5901 5900 5900 5900 5900 5900 5900 5900 5900 5900 5900 5901 5901 5902 5902 5902 5902 5902 5903 5903 5903 5902 5902 5902 5901 5900 5900 5899 5898 5898
5925 5925 5925 5924 5923 5922 5921 5920 5919 5917 5916 5914 5912 5910 5909 5908 5907 5906 5905 5904 5903 5902 5902 5902 5902 5901 5901 5901 5901 5902 5902 5902 5903 5903 5903 5903 5903 5904 5904 5903 5903 5903 5902 5901 5901 5900 5900 5899 5898
5927 5926 5926 5925 5925 5924 5924 5923 5921 5920 5918 5916 5914 5913 5911 5910 5909 5908 5907 5906 5905 5905 5904 5904 5904 5903 5903 5902 5902 5903 5903 5903 5903 5904 5903 5903 5904 5904 5904 5904 5904 5903 5903 5902 5901 5901 5900 5899 5898
5928 5928 5927 5927 5926 5926 5926 5925 5923 5922 5920 5918 5916 5915 5913 5912 5911 5910 5909 5908 5908 5907 5906 5906 5905 5905 5904 5904 5904 5904 5904 5904 5904 5904 5904 5904 5905 5905 5905 5904 5904 5904 5903 5903 5902 5902 5901 5900 5899
5929 5929 5928 5928 5927 5927 5928 5926 5925 5923 5922 5920 5919 5917 5916 5915 5913 5912 5911 5910 5910 5909 5908 5908 5907 5907 5906 5906 5906 5905 5905 5905 5905 5905 5905 5905 5906 5906 5905 5905 5905 5904 5904 5904 5903 5902 5901 5901 5899
5929 5929 5929 5929 5928 5928 5928 5927 5925 5924 5924 5922 5921 5919 5918 5916 5915 5914 5913 5912 5911 5911 5910 5910 5909 5909 5908 5908 5907 5907 5907 5907 5907 5907 5907 5906 5907 5906 5906 5906 5906 5905 5905 5904 5903 5903 5902 5901 5899
5929 5929 5929 5929 5929 5929 5929 5928 5927 5926 5925 5924 5922 5921 5920 5918 5917 5915 5914 5913 5913 5913 5912 5912 5911 5911 5910 5909 5909 5909 5908 5908 5908 5908 5908 5908 5908 5907 5907 5907 5906 5906 5905 5904 5904 5903 5902 5901 5899
5929 5929 5929 5930 5929 5930 5929 5928 5928 5927 5926 5925 5924 5922 5921 5920 5918 5917 5916 5915 5914 5914 5913 5913 5913 5912 5912 5911 5910 5910 5910 5909 5909 5909 5909 5908 5908 5908 5908 5907 5906 5906 5905 5904 5904 5903 5902 5901 5899
5929 5930 5930 5929 5930 5930 5929 5929 5929 5928 5927 5926 5925 5924 5922 5921 5920 5918 5917 5916 5915 5915 5914 5914 5913 5913 5913 5912 5912 5911 5911 5910 5910 5910 5910 5909 5909 5908 5908 5907 5907 5906 5905 5905 5904 5903 5902 5901 5899
5929 5930 5930 5930 5930 5930 5930 5929 5929 5929 5928 5927 5926 5924 5923 5923 5921 5920 5919 5917 5916 5916 5915 5915 5914 5914 5913 5913 5913 5913 5912 5912 5911 5911 5910 5910 5909 5908 5908 5908 5907 5906 5905 5904 5904 5902 5901 5900 5899
5928 5929 5930 5930 5930 5929 5930 5930 5930 5929 5928 5928 5927 5925 5924 5923 5922 5921 5920 5919 5917 5917 5916 5916 5915 5915 5914 5914 5914 5914 5913 5913 5912 5911 5911 5910 5909 5909 5908 5907 5907 5906 5905 5904 5903 5902 5901 5900 5899
5928 5929 5929 5930 5929 5929 5930 5930 5930 5928 5928 5928 5927 5926 5925 5924 5923 5922 5921 5920 5919 5918 5917 5916 5916 5915 5915 5914 5914 5914 5913 5913 5912 5911 5910 5910 5909 5909 5908 5907 5906 5905 5905 5904 5903 5902 5901 5899 5898
5926 5928 5929 5929 5928 5929 5929 5929 5929 5928 5928 5928 5927 5926 5925 5924 5923 5922 5921 5920 5919 5918 5917 5916 5916 5915 5915 5915 5914 5914 5913 5913 5912 5911 5910 5910 5909 5908 5907 5906 5906 5905 5904 5903 5902 5901 5900 5899 5898
5924 5926 5927 5927 5927 5928 5928 5928 5929 5928 5927 5927 5926 5926 5925 5924 5923 5922 5921 5920 5919 5918 5918 5917 5915 5915 5914 5914 5914 5913 5913 5912 5911 5911 5910 5909 5909 5908 5907 5906 5905 5904 5903 5902 5901 5900 5899 5898 5897
5922 5924 5925 5925 5925 5926 5926 5926 5927 5927 5926 5925 5925 5925 5924 5923 5923 5922 5921 5920 5919 5918 5917 5916 5915 5914 5913 5913 5913 5913 5912 5911 5911 5910 5909 5909 5908 5907 5906 5905 5904 5903 5902 5901 5899 5898 5897 5896 5895
5919 5921 5922 5923 5923 5924 5924 5925 5925 5925 5924 5924 5923 5923 5923 5923 5922 5922 5920 5919 5918 5917 5916 5915 5914 5913 5912 5912 5911 5911 5911 5910 5909 5909 5908 5907 5907 5905 5904 5903 5903 5902 5900 5899 5898 5897 5895 5894 5893
5917 5918 5919 5920 5920 5920 5922 5922 5923 5923 5923 5922 5922 5921 5921 5921 5921 5921 5920 5918 5917 5916 5915 5914 5914 5913 5911 5910 5910 5909 5909 5908 5908 5907 5907 5906 5905 5904 5903 5902 5901 5900 5898 5897 5896 5894 5893 5892 5891
5913 5915 5915 5916 5917 5918 5918 5921 5920 5921 5921 5920 5920 5920 5920 5920 5919 5918 5918 5917 5916 5915 5914 5912 5912 5911 5910 5909 5909 5908 5907 5906 5905 5905 5904 5903 5903 5902 5901 5900 5899 5897 5896 5895 5893 5892 5890 5889 5888
5909 5910 5912 5913 5914 5915 5915 5919 5917 5917 5917 5918 5918 5918 5918 5917 5917 5916 5915 5915 5914 5913 5912 5911 5910 5909 5909 5908 5907 5906 5905 5904 5903 5902 5902 5901 5900 5899 5898 5897 5896 5894 5893 5892 5890 5889 5887 5886 5884